EN

Hourly Weather Bugaj

Today, 16 May, Sunday

Time Temperature Precipitation Wind Pressure Humidity
00:00 +12°C° 0.2 mm 1 mps 727 mmHg 89%
01:00 +12°C° 0.2 mm 1 mps 727 mmHg 88%
02:00 +12°C° 0 mm 1 mps 727 mmHg 88%
03:00 +11°C° 0 mm 1 mps 727 mmHg 89%
04:00 +11°C° 0 mm 1 mps 727 mmHg 89%
05:00 +12°C° 0.2 mm 1 mps 727 mmHg 89%
06:00 +12°C° 0.2 mm 1 mps 727 mmHg 89%
07:00 +12°C° 0.2 mm 1 mps 728 mmHg 89%
08:00 +13°C° 0.2 mm 2 mps 728 mmHg 85%
09:00 +14°C° 0.2 mm 3 mps 728 mmHg 80%
10:00 +15°C° 0.2 mm 4 mps 728 mmHg 75%
11:00 +15°C° 0.3 mm 4 mps 728 mmHg 72%
12:00 +17°C° 0.3 mm 4 mps 728 mmHg 69%
13:00 +17°C° 0.3 mm 4 mps 728 mmHg 66%
14:00 +16°C° 0.7 mm 3 mps 727 mmHg 72%
15:00 +14°C° 0.7 mm 3 mps 727 mmHg 77%
16:00 +14°C° 0.7 mm 2 mps 727 mmHg 83%
17:00 +14°C° 0.3 mm 2 mps 727 mmHg 85%
18:00 +13°C° 0.3 mm 2 mps 727 mmHg 87%
19:00 +13°C° 0.3 mm 2 mps 727 mmHg 89%
20:00 +12°C° 0 mm 2 mps 727 mmHg 90%
21:00 +10°C° 0 mm 2 mps 727 mmHg 91%
22:00 +10°C° 0 mm 2 mps 727 mmHg 92%
23:00 +9°C° 0 mm 2 mps 727 mmHg 92%

Tomorrow, 17 May, Monday

Time Temperature Precipitation Wind Pressure Humidity
00:00 +9°C° 0 mm 2 mps 727 mmHg 92%
01:00 +9°C° 0 mm 2 mps 727 mmHg 92%
02:00 +8°C° 0 mm 2 mps 727 mmHg 92%
03:00 +8°C° 0 mm 2 mps 727 mmHg 91%
04:00 +9°C° 0 mm 1 mps 727 mmHg 91%
05:00 +10°C° 0 mm 2 mps 727 mmHg 86%
06:00 +12°C° 0 mm 2 mps 727 mmHg 82%
07:00 +14°C° 0 mm 2 mps 727 mmHg 78%
08:00 +15°C° 0.1 mm 2 mps 727 mmHg 74%
09:00 +16°C° 0.1 mm 3 mps 727 mmHg 69%
10:00 +17°C° 0.1 mm 3 mps 727 mmHg 64%
11:00 +17°C° 0.2 mm 3 mps 726 mmHg 65%
12:00 +17°C° 0.2 mm 3 mps 726 mmHg 66%
13:00 +17°C° 0.2 mm 3 mps 726 mmHg 66%
14:00 +16°C° 1.8 mm 3 mps 726 mmHg 74%
15:00 +13°C° 1.8 mm 4 mps 725 mmHg 82%
16:00 +12°C° 1.8 mm 5 mps 725 mmHg 90%
17:00 +11°C° 2.6 mm 4 mps 726 mmHg 92%
18:00 +10°C° 2.6 mm 4 mps 726 mmHg 94%
19:00 +8°C° 2.6 mm 4 mps 726 mmHg 96%
20:00 +8°C° 1.2 mm 4 mps 727 mmHg 96%
21:00 +8°C° 1.2 mm 4 mps 727 mmHg 96%
22:00 +8°C° 1.2 mm 4 mps 727 mmHg 96%
23:00 +8°C° 0.7 mm 4 mps 727 mmHg 96%

Day after tomorrow, 18 May, Tuesday

Time Temperature Precipitation Wind Pressure Humidity
00:00 +8°C° 0.7 mm 4 mps 727 mmHg 95%
01:00 +8°C° 0.7 mm 5 mps 727 mmHg 95%
02:00 +8°C° 0.4 mm 5 mps 727 mmHg 95%
03:00 +8°C° 0.4 mm 6 mps 727 mmHg 95%
04:00 +8°C° 0.4 mm 6 mps 727 mmHg 96%
05:00 +8°C° 0.1 mm 7 mps 727 mmHg 94%
06:00 +8°C° 0.1 mm 7 mps 728 mmHg 93%
07:00 +8°C° 0.1 mm 7 mps 728 mmHg 92%
08:00 +8°C° 0 mm 7 mps 728 mmHg 90%
09:00 +9°C° 0 mm 7 mps 729 mmHg 87%
10:00 +9°C° 0 mm 7 mps 729 mmHg 85%
11:00 +10°C° 0.2 mm 7 mps 729 mmHg 80%
12:00 +11°C° 0.2 mm 7 mps 729 mmHg 75%
13:00 +12°C° 0.2 mm 7 mps 729 mmHg 71%
14:00 +12°C° 0.2 mm 7 mps 729 mmHg 71%
15:00 +12°C° 0.2 mm 7 mps 729 mmHg 71%
16:00 +14°C° 0.2 mm 6 mps 729 mmHg 71%
17:00 +13°C° 0.1 mm 6 mps 730 mmHg 75%
18:00 +12°C° 0.1 mm 5 mps 730 mmHg 79%
19:00 +11°C° 0.1 mm 4 mps 730 mmHg 82%
20:00 +10°C° 0 mm 4 mps 730 mmHg 86%
21:00 +8°C° 0 mm 4 mps 731 mmHg 90%
22:00 +7°C° 0 mm 4 mps 731 mmHg 94%
23:00 +7°C° 0 mm 4 mps 731 mmHg 95%

19 May, Wednesday

Time Temperature Precipitation Wind Pressure Humidity
00:00 +7°C° 0 mm 4 mps 731 mmHg 95%
01:00 +6°C° 0 mm 4 mps 732 mmHg 96%
02:00 +7°C° 0 mm 3 mps 732 mmHg 96%
03:00 +7°C° 0 mm 3 mps 732 mmHg 97%
04:00 +5°C° 0 mm 3 mps 732 mmHg 97%
05:00 +7°C° 0 mm 4 mps 732 mmHg 93%
06:00 +8°C° 0 mm 4 mps 732 mmHg 89%
07:00 +9°C° 0 mm 5 mps 733 mmHg 86%
08:00 +10°C° 0.1 mm 5 mps 733 mmHg 82%
09:00 +10°C° 0.1 mm 5 mps 733 mmHg 78%
10:00 +12°C° 0.1 mm 5 mps 733 mmHg 74%
11:00 +12°C° 0.2 mm 5 mps 733 mmHg 74%
12:00 +12°C° 0.2 mm 5 mps 733 mmHg 73%
13:00 +12°C° 0.2 mm 5 mps 733 mmHg 73%
14:00 +12°C° 0.1 mm 5 mps 733 mmHg 73%
15:00 +13°C° 0.1 mm 5 mps 733 mmHg 72%
16:00 +13°C° 0.1 mm 5 mps 733 mmHg 72%
17:00 +12°C° 0.1 mm 4 mps 733 mmHg 77%
18:00 +11°C° 0.1 mm 4 mps 734 mmHg 82%
19:00 +10°C° 0.1 mm 4 mps 734 mmHg 88%
20:00 +9°C° 0 mm 3 mps 734 mmHg 90%
21:00 +8°C° 0 mm 3 mps 734 mmHg 92%
22:00 +7°C° 0 mm 2 mps 734 mmHg 95%
23:00 +7°C° 0 mm 2 mps 734 mmHg 95%

20 May, Thursday

Time Temperature Precipitation Wind Pressure Humidity
00:00 +7°C° 0 mm 2 mps 734 mmHg 95%
01:00 +6°C° 0 mm 2 mps 734 mmHg 95%
02:00 +6°C° 0 mm 2 mps 734 mmHg 95%
03:00 +6°C° 0 mm 2 mps 734 mmHg 95%
04:00 +5°C° 0 mm 2 mps 734 mmHg 96%
05:00 +7°C° 0 mm 3 mps 734 mmHg 91%
06:00 +8°C° 0 mm 3 mps 734 mmHg 87%
07:00 +10°C° 0 mm 3 mps 735 mmHg 82%
08:00 +11°C° 0.3 mm 4 mps 734 mmHg 77%
09:00 +12°C° 0.3 mm 4 mps 734 mmHg 72%
10:00 +13°C° 0.3 mm 4 mps 734 mmHg 67%
11:00 +14°C° 0.2 mm 4 mps 734 mmHg 63%
12:00 +14°C° 0.2 mm 4 mps 734 mmHg 59%
13:00 +15°C° 0.2 mm 5 mps 734 mmHg 55%
14:00 +14°C° 0.2 mm 5 mps 734 mmHg 59%
15:00 +14°C° 0.2 mm 5 mps 735 mmHg 63%
16:00 +13°C° 0.2 mm 6 mps 735 mmHg 68%
17:00 +12°C° 0.1 mm 5 mps 735 mmHg 70%
18:00 +11°C° 0.1 mm 4 mps 735 mmHg 72%
19:00 +10°C° 0.1 mm 3 mps 736 mmHg 74%
20:00 +9°C° 0 mm 3 mps 736 mmHg 79%
21:00 +8°C° 0 mm 3 mps 736 mmHg 83%
22:00 +7°C° 0 mm 2 mps 737 mmHg 88%
23:00 +6°C° 0 mm 2 mps 737 mmHg 89%

21 May, Friday

Time Temperature Precipitation Wind Pressure Humidity
00:00 +6°C° 0 mm 2 mps 737 mmHg 91%
01:00 +5°C° 0 mm 2 mps 737 mmHg 92%
02:00 +5°C° 0 mm 2 mps 737 mmHg 92%
03:00 +5°C° 0 mm 2 mps 737 mmHg 93%
04:00 +5°C° 0 mm 2 mps 736 mmHg 93%
05:00 +7°C° 0 mm 3 mps 736 mmHg 87%
06:00 +8°C° 0 mm 3 mps 736 mmHg 81%
07:00 +10°C° 0 mm 4 mps 736 mmHg 74%
08:00 +11°C° 0 mm 4 mps 736 mmHg 69%
09:00 +13°C° 0 mm 4 mps 736 mmHg 64%
10:00 +14°C° 0 mm 4 mps 735 mmHg 58%
11:00 +14°C° 0 mm 4 mps 735 mmHg 57%
12:00 +14°C° 0 mm 3 mps 735 mmHg 57%
13:00 +16°C° 0 mm 3 mps 734 mmHg 56%
14:00 +16°C° 0 mm 3 mps 734 mmHg 57%
15:00 +16°C° 0 mm 3 mps 733 mmHg 58%
16:00 +16°C° 0 mm 3 mps 733 mmHg 59%
17:00 +14°C° 0.1 mm 3 mps 732 mmHg 64%
18:00 +14°C° 0.1 mm 2 mps 732 mmHg 70%
19:00 +13°C° 0.1 mm 2 mps 732 mmHg 76%
20:00 +11°C° 0 mm 3 mps 731 mmHg 77%
21:00 +11°C° 0 mm 3 mps 731 mmHg 78%
22:00 +10°C° 0 mm 3 mps 731 mmHg 80%
23:00 +10°C° 0 mm 3 mps 731 mmHg 79%
Show more

We Need Your Consent

Meteoprog and our Service Providers may store and access personal data such as cookies, device identifiers or other similar technologies on your device and process such data to personalise content and ads, as well as provide social media features and to analyse the traffic.

  • Store and/or access information on your device

    Cookies, device identifiers or other information can be stored or accessed on your device for the purposes indicated above.

  • Personalised ads and content, ad and content measurement, audience insights, and products development

    Ads and content can be personalised based on a profile. More data can be added to better personalise ads and content. Ad and content performance can be measured. Insights about the audience who saw the ads and content can be derived. Such data can be used to develop or improve user’s experience, systems and software.

By clicking ‘I Agree’ you will allow the use of indicated cookies, device identifiers, web beacons or other similar technologies. Your settings can be changed in the browser on your device.

For certain purposes, legitimate interests may be relied on, rather than consent. You can read more about this in our Privacy and Cookie Policy.